Time,TemperatureF,DewpointF,PressureIn,WindDirection,WindDirectionDegrees,WindSpeedMPH,WindSpeedGustMPH,Humidity,HourlyPrecipIn,Conditions,Clouds,dailyrainin,SoftwareType,DateUTC
2013-11-15 00:00:00,57.1,37.6,29.77,NNW,345,0.0,1.0,48,0.00,,---,0.00,VWS V15.00,2013-11-15 07:00:00,
2013-11-15 00:02:00,57.1,37.6,29.77,NNW,347,0.0,1.0,48,0.00,,---,0.00,VWS V14.01,2013-11-15 07:02:00,
2013-11-15 00:07:00,57.4,37.3,29.77,North,360,0.0,1.0,47,0.00,,---,0.00,VWS V14.01,2013-11-15 07:07:00,
2013-11-15 00:12:00,57.6,37.5,29.76,NNE,32,0.0,1.0,47,0.00,,---,0.00,VWS V14.01,2013-11-15 07:12:00,
2013-11-15 00:17:00,56.8,36.8,29.77,NE,34,2.0,2.0,47,0.00,,---,0.00,VWS V14.01,2013-11-15 07:17:00,
2013-11-15 00:22:00,55.8,36.4,29.77,NE,48,0.0,4.0,48,0.00,,---,0.00,VWS V14.01,2013-11-15 07:22:00,
2013-11-15 00:27:00,55.1,36.3,29.77,North,7,0.0,4.0,49,0.00,,---,0.00,VWS V14.01,2013-11-15 07:27:00,
2013-11-15 00:30:00,54.9,36.6,29.77,North,7,0.0,4.0,50,0.00,,---,0.00,VWS V15.00,2013-11-15 07:30:00,
2013-11-15 00:32:00,55.0,36.7,29.76,North,8,0.0,0.0,50,0.00,,---,0.00,VWS V14.01,2013-11-15 07:32:00,
2013-11-15 00:37:00,55.3,37.0,29.76,NNW,347,0.0,0.0,50,0.00,,---,0.00,VWS V14.01,2013-11-15 07:37:00,
2013-11-15 00:42:00,55.5,36.7,29.76,North,350,0.0,0.0,49,0.00,,---,0.00,VWS V14.01,2013-11-15 07:42:00,
2013-11-15 00:47:00,55.2,36.9,29.77,North,349,0.0,0.0,50,0.00,,---,0.00,VWS V14.01,2013-11-15 07:47:00,
2013-11-15 00:52:00,55.3,37.0,29.77,West,277,0.0,1.0,50,0.00,,---,0.00,VWS V14.01,2013-11-15 07:52:00,
2013-11-15 00:58:00,55.8,36.9,29.77,West,265,1.0,2.0,49,0.00,,---,0.00,VWS V14.01,2013-11-15 07:58:00,
2013-11-15 01:00:00,56.6,37.2,29.77,WSW,252,0.0,2.0,48,0.00,,---,0.00,VWS V15.00,2013-11-15 08:00:00,
2013-11-15 01:03:00,57.0,37.5,29.76,WSW,258,1.0,2.0,48,0.00,,---,0.00,VWS V14.01,2013-11-15 08:03:00,
2013-11-15 01:08:00,57.7,37.1,29.76,WSW,255,0.0,2.0,46,0.00,,---,0.00,VWS V14.01,2013-11-15 08:08:00,
2013-11-15 01:13:00,58.1,37.5,29.76,WSW,257,1.0,2.0,46,0.00,,---,0.00,VWS V14.01,2013-11-15 08:13:00,
2013-11-15 01:18:00,58.3,37.1,29.76,WSW,253,1.0,2.0,45,0.00,,---,0.00,VWS V14.01,2013-11-15 08:18:00,
2013-11-15 01:23:00,58.5,37.2,29.76,WSW,238,0.0,2.0,45,0.00,,---,0.00,VWS V14.01,2013-11-15 08:23:00,
2013-11-15 01:28:00,58.8,37.0,29.76,WSW,243,0.0,2.0,44,0.00,,---,0.00,VWS V14.01,2013-11-15 08:28:00,
2013-11-15 01:33:00,58.8,37.0,29.76,WSW,243,0.0,0.0,44,0.00,,---,0.00,VWS V14.01,2013-11-15 08:33:00,
2013-11-15 01:38:00,58.7,37.4,29.76,WSW,243,0.0,0.0,45,0.00,,---,0.00,VWS V14.01,2013-11-15 08:38:00,
2013-11-15 01:43:00,58.4,37.2,29.76,WSW,243,0.0,0.0,45,0.00,,---,0.00,VWS V14.01,2013-11-15 08:43:00,
2013-11-15 01:48:00,57.3,36.7,29.75,ENE,60,0.0,1.0,46,0.00,,---,0.00,VWS V14.01,2013-11-15 08:48:00,
2013-11-15 01:53:00,56.1,36.7,29.76,North,357,0.0,2.0,48,0.00,,---,0.00,VWS V14.01,2013-11-15 08:53:00,
2013-11-15 01:58:00,55.5,36.7,29.75,NNE,24,0.0,2.0,49,0.00,,---,0.00,VWS V14.01,2013-11-15 08:58:00,
2013-11-15 02:00:00,55.4,36.6,29.75,NE,39,2.0,2.0,49,0.00,,---,0.00,VWS V15.00,2013-11-15 09:00:00,
2013-11-15 02:03:00,55.3,37.0,29.75,NE,41,0.0,2.0,50,0.00,,---,0.00,VWS V14.01,2013-11-15 09:03:00,
2013-11-15 02:08:00,55.0,36.7,29.75,NNE,22,2.0,3.0,50,0.00,,---,0.00,VWS V14.01,2013-11-15 09:08:00,
2013-11-15 02:13:00,55.5,37.2,29.75,NNE,18,1.0,3.0,50,0.00,,---,0.00,VWS V14.01,2013-11-15 09:13:00,
2013-11-15 02:18:00,55.8,37.5,29.75,NNE,13,1.0,3.0,50,0.00,,---,0.00,VWS V14.01,2013-11-15 09:18:00,
2013-11-15 02:23:00,55.9,37.5,29.75,NNE,13,0.0,3.0,50,0.00,,---,0.00,VWS V14.01,2013-11-15 09:23:00,
2013-11-15 02:29:00,56.1,37.7,29.75,North,352,0.0,3.0,50,0.00,,---,0.00,VWS V14.01,2013-11-15 09:29:00,
2013-11-15 02:30:00,56.1,37.7,29.75,North,351,0.0,3.0,50,0.00,,---,0.00,VWS V15.00,2013-11-15 09:30:00,
2013-11-15 02:34:00,56.0,37.6,29.75,North,351,0.0,0.0,50,0.00,,---,0.00,VWS V14.01,2013-11-15 09:34:00,
2013-11-15 02:39:00,56.2,37.8,29.75,NW,326,0.0,1.0,50,0.00,,---,0.00,VWS V14.01,2013-11-15 09:39:00,
2013-11-15 02:44:00,56.5,37.6,29.75,NNW,330,0.0,1.0,49,0.00,,---,0.00,VWS V14.01,2013-11-15 09:44:00,
2013-11-15 02:49:00,56.8,37.9,29.75,NNW,330,0.0,1.0,49,0.00,,---,0.00,VWS V14.01,2013-11-15 09:49:00,
2013-11-15 02:54:00,56.9,38.0,29.75,NNW,329,0.0,1.0,49,0.00,,---,0.00,VWS V14.01,2013-11-15 09:54:00,
2013-11-15 02:59:00,57.3,37.8,29.74,NNW,328,0.0,1.0,48,0.00,,---,0.00,VWS V14.01,2013-11-15 09:59:00,
2013-11-15 03:00:00,57.3,37.8,29.74,NNW,332,0.0,1.0,48,0.00,,---,0.00,VWS V15.00,2013-11-15 10:00:00,
2013-11-15 03:04:00,57.4,37.9,29.74,NNW,330,0.0,0.0,48,0.00,,---,0.00,VWS V14.01,2013-11-15 10:04:00,
2013-11-15 03:09:00,57.7,37.6,29.74,NNW,330,0.0,0.0,47,0.00,,---,0.00,VWS V14.01,2013-11-15 10:09:00,
2013-11-15 03:14:00,58.0,37.9,29.74,NW,312,0.0,1.0,47,0.00,,---,0.00,VWS V14.01,2013-11-15 10:14:00,
2013-11-15 03:19:00,58.4,37.7,29.73,West,280,0.0,1.0,46,0.00,,---,0.00,VWS V14.01,2013-11-15 10:19:00,
2013-11-15 03:24:00,58.9,37.6,29.73,West,259,0.0,1.0,45,0.00,,---,0.00,VWS V14.01,2013-11-15 10:24:00,
2013-11-15 03:29:00,59.7,37.8,29.73,WSW,258,1.0,2.0,44,0.00,,---,0.00,VWS V14.01,2013-11-15 10:29:00,
2013-11-15 03:30:00,59.9,38.0,29.73,West,276,1.0,2.0,44,0.00,,---,0.00,VWS V15.00,2013-11-15 10:30:00,
2013-11-15 03:34:00,60.2,37.6,29.73,West,271,3.0,3.0,43,0.00,,---,0.00,VWS V14.01,2013-11-15 10:34:00,
2013-11-15 03:39:00,60.5,37.9,29.73,WSW,253,1.0,3.0,43,0.00,,---,0.00,VWS V14.01,2013-11-15 10:39:00,
2013-11-15 03:44:00,61.0,37.8,29.73,West,262,3.0,5.0,42,0.00,,---,0.00,VWS V14.01,2013-11-15 10:44:00,
2013-11-15 03:49:00,61.4,37.5,29.73,SW,221,3.0,5.0,41,0.00,,---,0.00,VWS V14.01,2013-11-15 10:49:00,
2013-11-15 03:55:00,61.5,37.6,29.73,SSW,201,1.0,5.0,41,0.00,,---,0.00,VWS V14.01,2013-11-15 10:55:00,
2013-11-15 04:00:00,61.4,37.5,29.73,WSW,246,1.0,5.0,41,0.00,,---,0.00,VWS V14.01,2013-11-15 11:00:00,
2013-11-15 04:05:00,61.0,37.8,29.73,WSW,238,2.0,4.0,42,0.00,,---,0.00,VWS V14.01,2013-11-15 11:05:00,
2013-11-15 04:10:00,61.1,38.5,29.73,SW,218,3.0,5.0,43,0.00,,---,0.00,VWS V14.01,2013-11-15 11:10:00,
2013-11-15 04:15:00,61.2,38.5,29.73,WSW,239,1.0,5.0,43,0.00,,---,0.00,VWS V14.01,2013-11-15 11:15:00,
2013-11-15 04:20:00,61.3,38.6,29.73,West,260,0.0,5.0,43,0.00,,---,0.00,VWS V14.01,2013-11-15 11:20:00,
2013-11-15 04:25:00,61.3,38.6,29.73,SW,233,0.0,5.0,43,0.00,,---,0.00,VWS V14.01,2013-11-15 11:25:00,
2013-11-15 04:30:00,61.4,39.3,29.73,SSW,205,0.0,5.0,44,0.00,,---,0.00,VWS V14.01,2013-11-15 11:30:00,
2013-11-15 04:35:00,61.6,40.6,29.73,SSW,193,2.0,4.0,46,0.00,,---,0.00,VWS V14.01,2013-11-15 11:35:00,
2013-11-15 04:40:00,62.2,41.2,29.73,SSE,162,1.0,4.0,46,0.00,,---,0.00,VWS V14.01,2013-11-15 11:40:00,
2013-11-15 04:45:00,63.0,43.0,29.73,South,176,3.0,6.0,48,0.00,,---,0.00,VWS V14.01,2013-11-15 11:45:00,
2013-11-15 04:50:00,63.8,43.2,29.73,South,169,2.0,6.0,47,0.00,,---,0.00,VWS V14.01,2013-11-15 11:50:00,
2013-11-15 04:55:00,64.4,43.8,29.73,SE,132,4.0,10.0,47,0.00,,---,0.00,VWS V14.01,2013-11-15 11:55:00,
2013-11-15 05:00:00,64.8,44.7,29.73,SW,215,3.0,10.0,48,0.00,,---,0.00,VWS V14.01,2013-11-15 12:00:00,
2013-11-15 05:05:00,65.1,44.9,29.73,SW,217,2.0,8.0,48,0.00,,---,0.00,VWS V14.01,2013-11-15 12:05:00,
2013-11-15 05:10:00,65.3,45.1,29.72,SSW,211,1.0,8.0,48,0.00,,---,0.00,VWS V14.01,2013-11-15 12:10:00,
2013-11-15 05:15:00,65.4,45.8,29.72,SSE,160,5.0,8.0,49,0.00,,---,0.00,VWS V14.01,2013-11-15 12:15:00,
2013-11-15 05:20:00,65.6,46.0,29.72,SSW,197,1.0,11.0,49,0.00,,---,0.00,VWS V14.01,2013-11-15 12:20:00,
2013-11-15 05:26:00,65.5,45.8,29.72,South,172,3.0,11.0,49,0.00,,---,0.00,VWS V14.01,2013-11-15 12:26:00,
2013-11-15 05:30:00,65.6,46.0,29.73,SSW,195,3.0,11.0,49,0.00,,---,0.00,VWS V15.00,2013-11-15 12:30:00,
2013-11-15 05:31:00,65.6,46.0,29.73,SE,141,2.0,11.0,49,0.00,,---,0.00,VWS V14.01,2013-11-15 12:31:00,
2013-11-15 05:36:00,65.7,46.0,29.72,SW,233,8.0,10.0,49,0.00,,---,0.00,VWS V14.01,2013-11-15 12:36:00,
2013-11-15 05:41:00,66.0,46.3,29.72,SE,134,1.0,13.0,49,0.00,,---,0.00,VWS V14.01,2013-11-15 12:41:00,
2013-11-15 05:46:00,66.1,46.4,29.72,South,184,4.0,13.0,49,0.00,,---,0.00,VWS V14.01,2013-11-15 12:46:00,
2013-11-15 05:51:00,66.0,46.3,29.72,South,188,4.0,13.0,49,0.00,,---,0.00,VWS V14.01,2013-11-15 12:51:00,
2013-11-15 05:56:00,65.9,46.2,29.72,SSW,194,3.0,13.0,49,0.00,,---,0.00,VWS V14.01,2013-11-15 12:56:00,
2013-11-15 06:00:00,65.8,46.1,29.72,SSW,210,8.0,13.0,49,0.00,,---,0.00,VWS V15.00,2013-11-15 13:00:00,
2013-11-15 06:01:00,65.8,46.1,29.72,SSE,158,6.0,7.0,49,0.00,,---,0.00,VWS V14.01,2013-11-15 13:01:00,
2013-11-15 06:06:00,66.0,46.3,29.72,South,191,4.0,9.0,49,0.00,,---,0.00,VWS V14.01,2013-11-15 13:06:00,
2013-11-15 06:11:00,66.1,46.4,29.72,SSW,201,6.0,13.0,49,0.00,,---,0.00,VWS V14.01,2013-11-15 13:11:00,
2013-11-15 06:16:00,66.0,46.3,29.72,SSE,162,4.0,13.0,49,0.00,,---,0.00,VWS V14.01,2013-11-15 13:16:00,
2013-11-15 06:21:00,66.0,46.3,29.73,SE,124,8.0,13.0,49,0.00,,---,0.00,VWS V14.01,2013-11-15 13:21:00,
2013-11-15 06:26:00,66.0,46.3,29.72,SSE,152,5.0,13.0,49,0.00,,---,0.00,VWS V14.01,2013-11-15 13:26:00,
2013-11-15 06:31:00,66.0,46.3,29.72,South,177,1.0,5.0,49,0.00,,---,0.00,VWS V14.01,2013-11-15 13:31:00,
2013-11-15 06:36:00,65.9,46.8,29.72,ESE,123,2.0,10.0,50,0.00,,---,0.00,VWS V14.01,2013-11-15 13:36:00,
2013-11-15 06:42:00,65.9,46.8,29.72,South,170,2.0,10.0,50,0.00,,---,0.00,VWS V14.01,2013-11-15 13:42:00,
2013-11-15 06:47:00,65.8,46.7,29.72,SSW,212,8.0,10.0,50,0.00,,---,0.00,VWS V14.01,2013-11-15 13:47:00,
2013-11-15 06:52:00,65.8,46.7,29.72,SSW,198,3.0,10.0,50,0.00,,---,0.00,VWS V14.01,2013-11-15 13:52:00,
2013-11-15 06:57:00,65.8,46.7,29.72,South,179,1.0,10.0,50,0.00,,---,0.00,VWS V14.01,2013-11-15 13:57:00,
2013-11-15 07:00:00,65.9,46.8,29.72,South,183,2.0,10.0,50,0.00,,---,0.00,VWS V15.00,2013-11-15 14:00:00,
2013-11-15 07:02:00,65.9,46.8,29.72,South,188,6.0,6.0,50,0.00,,---,0.00,VWS V14.01,2013-11-15 14:02:00,
2013-11-15 07:07:00,65.9,46.8,29.72,SSE,167,3.0,10.0,50,0.00,,---,0.00,VWS V14.01,2013-11-15 14:07:00,
2013-11-15 07:12:00,66.0,46.8,29.72,SSW,198,5.0,12.0,50,0.00,,---,0.00,VWS V14.01,2013-11-15 14:12:00,
2013-11-15 07:17:00,66.4,46.7,29.71,South,175,9.0,12.0,49,0.00,,---,0.00,VWS V14.01,2013-11-15 14:17:00,
2013-11-15 07:22:00,66.7,47.0,29.72,SSW,198,7.0,15.0,49,0.00,,---,0.00,VWS V14.01,2013-11-15 14:22:00,
2013-11-15 07:27:00,66.5,46.8,29.72,South,175,5.0,15.0,49,0.00,,---,0.00,VWS V14.01,2013-11-15 14:27:00,
2013-11-15 07:30:00,66.4,47.2,29.72,SW,219,11.0,15.0,50,0.00,,---,0.00,VWS V15.00,2013-11-15 14:30:00,
2013-11-15 07:32:00,66.4,47.2,29.72,South,175,4.0,12.0,50,0.00,,---,0.00,VWS V14.01,2013-11-15 14:32:00,
2013-11-15 07:37:00,66.4,47.2,29.72,SSW,200,9.0,13.0,50,0.00,,---,0.00,VWS V14.01,2013-11-15 14:37:00,
2013-11-15 07:42:00,66.4,47.2,29.72,South,181,5.0,13.0,50,0.00,,---,0.00,VWS V14.01,2013-11-15 14:42:00,
2013-11-15 07:47:00,66.4,47.2,29.72,South,182,7.0,13.0,50,0.00,,---,0.00,VWS V14.01,2013-11-15 14:47:00,
2013-11-15 07:52:00,66.5,47.3,29.72,South,170,5.0,13.0,50,0.00,,---,0.00,VWS V14.01,2013-11-15 14:52:00,
2013-11-15 07:57:00,66.6,47.4,29.72,South,181,4.0,13.0,50,0.00,,---,0.00,VWS V14.01,2013-11-15 14:57:00,
2013-11-15 08:00:00,66.6,47.4,29.72,South,169,4.0,13.0,50,0.00,,---,0.00,VWS V15.00,2013-11-15 15:00:00,
2013-11-15 08:03:00,66.6,47.4,29.72,SW,226,6.0,9.0,50,0.00,,---,0.00,VWS V14.01,2013-11-15 15:03:00,
2013-11-15 08:08:00,66.7,47.5,29.72,SSW,205,5.0,14.0,50,0.00,,---,0.00,VWS V14.01,2013-11-15 15:08:00,
2013-11-15 08:13:00,66.7,47.5,29.73,South,174,6.0,16.0,50,0.00,,---,0.00,VWS V14.01,2013-11-15 15:13:00,
2013-11-15 08:18:00,66.8,47.6,29.73,South,186,11.0,16.0,50,0.00,,---,0.00,VWS V14.01,2013-11-15 15:18:00,
2013-11-15 08:23:00,66.9,47.7,29.72,WSW,245,4.0,16.0,50,0.00,,---,0.00,VWS V14.01,2013-11-15 15:23:00,
2013-11-15 08:28:00,67.0,47.8,29.72,East,100,7.0,16.0,50,0.00,,---,0.00,VWS V14.01,2013-11-15 15:28:00,
2013-11-15 08:30:00,67.1,47.9,29.72,South,181,7.0,16.0,50,0.00,,---,0.00,VWS V15.00,2013-11-15 15:30:00,
2013-11-15 08:33:00,67.2,47.4,29.72,SSW,194,6.0,10.0,49,0.00,,---,0.00,VWS V14.01,2013-11-15 15:33:00,
2013-11-15 08:38:00,67.2,47.4,29.72,SSW,203,6.0,11.0,49,0.00,,---,0.00,VWS V14.01,2013-11-15 15:38:00,
2013-11-15 08:43:00,67.3,47.5,29.72,SSE,150,7.0,13.0,49,0.00,,---,0.00,VWS V14.01,2013-11-15 15:43:00,
2013-11-15 08:48:00,67.4,47.6,29.72,SW,226,7.0,13.0,49,0.00,,---,0.00,VWS V14.01,2013-11-15 15:48:00,
2013-11-15 08:53:00,67.6,47.2,29.72,SE,143,5.0,14.0,48,0.00,,---,0.00,VWS V14.01,2013-11-15 15:53:00,
2013-11-15 08:58:00,67.9,47.0,29.72,South,173,11.0,16.0,47,0.00,,---,0.00,VWS V14.01,2013-11-15 15:58:00,
2013-11-15 09:00:00,68.1,47.1,29.72,South,174,11.0,17.0,47,0.00,,---,0.00,VWS V15.00,2013-11-15 16:00:00,
2013-11-15 09:03:00,68.1,47.1,29.72,SSW,205,14.0,15.0,47,0.00,,---,0.00,VWS V14.01,2013-11-15 16:03:00,
2013-11-15 09:09:00,68.1,47.1,29.72,ESE,120,6.0,17.0,47,0.00,,---,0.00,VWS V14.01,2013-11-15 16:09:00,
2013-11-15 09:14:00,68.1,47.1,29.72,South,169,4.0,17.0,47,0.00,,---,0.00,VWS V14.01,2013-11-15 16:14:00,
2013-11-15 09:19:00,67.8,47.4,29.72,SSE,153,6.0,17.0,48,0.00,,---,0.00,VWS V14.01,2013-11-15 16:19:00,
2013-11-15 09:24:00,68.0,47.0,29.72,SSE,153,6.0,18.0,47,0.00,,---,0.00,VWS V14.01,2013-11-15 16:24:00,
2013-11-15 09:29:00,68.6,47.6,29.72,SSW,197,6.0,18.0,47,0.00,,---,0.00,VWS V14.01,2013-11-15 16:29:00,
2013-11-15 09:30:00,68.9,47.3,29.72,SSE,150,12.0,18.0,46,0.00,,---,0.00,VWS V15.00,2013-11-15 16:30:00,
2013-11-15 09:34:00,69.3,47.7,29.72,SSE,165,11.0,12.0,46,0.00,,---,0.00,VWS V14.01,2013-11-15 16:34:00,
2013-11-15 09:39:00,69.9,47.6,29.73,SSW,198,5.0,17.0,45,0.00,,---,0.00,VWS V14.01,2013-11-15 16:39:00,
2013-11-15 09:44:00,70.5,47.6,29.73,SSW,198,9.0,17.0,44,0.00,,---,0.00,VWS V14.01,2013-11-15 16:44:00,
2013-11-15 09:49:00,70.7,47.7,29.72,South,169,14.0,18.0,44,0.00,,---,0.00,VWS V14.01,2013-11-15 16:49:00,
2013-11-15 09:54:00,70.9,47.9,29.72,SSW,194,10.0,18.0,44,0.00,,---,0.00,VWS V14.01,2013-11-15 16:54:00,
2013-11-15 09:59:00,70.4,47.5,29.72,WSW,240,7.0,18.0,44,0.00,,---,0.00,VWS V14.01,2013-11-15 16:59:00,
2013-11-15 10:00:00,70.3,47.4,29.72,SE,131,10.0,18.0,44,0.00,,---,0.00,VWS V15.00,2013-11-15 17:00:00,
2013-11-15 10:04:00,69.8,47.5,29.72,SE,145,7.0,14.0,45,0.00,,---,0.00,VWS V14.01,2013-11-15 17:04:00,
2013-11-15 10:09:00,69.3,47.1,29.71,SE,129,4.0,15.0,45,0.00,,---,0.00,VWS V14.01,2013-11-15 17:09:00,
2013-11-15 10:14:00,68.9,46.7,29.71,SE,131,4.0,15.0,45,0.00,,---,0.00,VWS V14.01,2013-11-15 17:14:00,
2013-11-15 10:19:00,68.8,47.2,29.71,South,181,3.0,17.0,46,0.00,,---,0.00,VWS V14.01,2013-11-15 17:19:00,
2013-11-15 10:24:00,68.8,47.2,29.71,South,177,4.0,17.0,46,0.00,,---,0.00,VWS V14.01,2013-11-15 17:24:00,
2013-11-15 10:29:00,69.0,47.4,29.71,SW,214,2.0,17.0,46,0.00,,---,0.00,VWS V14.01,2013-11-15 17:29:00,
2013-11-15 10:30:00,69.1,47.5,29.71,SSE,167,7.0,17.0,46,0.00,,---,0.00,VWS V15.00,2013-11-15 17:30:00,
2013-11-15 10:34:00,69.4,47.7,29.71,SE,145,6.0,12.0,46,0.00,,---,0.00,VWS V14.01,2013-11-15 17:34:00,
2013-11-15 10:40:00,69.7,47.4,29.71,SSW,201,9.0,16.0,45,0.00,,---,0.00,VWS V14.01,2013-11-15 17:40:00,
2013-11-15 10:45:00,69.6,47.3,29.71,South,181,5.0,19.0,45,0.00,,---,0.00,VWS V14.01,2013-11-15 17:45:00,
2013-11-15 10:50:00,69.5,47.2,29.71,SE,124,6.0,19.0,45,0.00,,---,0.00,VWS V14.01,2013-11-15 17:50:00,
2013-11-15 10:55:00,69.4,47.2,29.71,SSE,160,7.0,19.0,45,0.00,,---,0.00,VWS V14.01,2013-11-15 17:55:00,
2013-11-15 11:00:00,69.4,47.2,29.70,SSE,155,5.0,19.0,45,0.00,,---,0.00,VWS V14.01,2013-11-15 18:00:00,
2013-11-15 11:05:00,69.5,47.2,29.70,South,169,8.0,11.0,45,0.00,,---,0.00,VWS V14.01,2013-11-15 18:05:00,
2013-11-15 11:10:00,69.6,47.3,29.70,South,186,7.0,14.0,45,0.00,,---,0.00,VWS V14.01,2013-11-15 18:10:00,
2013-11-15 11:15:00,69.6,47.3,29.70,SE,131,5.0,14.0,45,0.00,,---,0.00,VWS V14.01,2013-11-15 18:15:00,
2013-11-15 11:20:00,69.6,47.3,29.70,South,173,8.0,14.0,45,0.00,,---,0.00,VWS V14.01,2013-11-15 18:20:00,
2013-11-15 11:25:00,69.7,48.0,29.70,SSW,203,9.0,14.0,46,0.00,,---,0.00,VWS V14.01,2013-11-15 18:25:00,
2013-11-15 11:30:00,70.4,48.1,29.69,SSE,147,6.0,14.0,45,0.00,,---,0.00,VWS V14.01,2013-11-15 18:30:00,
2013-11-15 11:35:00,71.2,47.6,29.69,SSE,155,2.0,14.0,43,0.00,,---,0.00,VWS V14.01,2013-11-15 18:35:00,
2013-11-15 11:40:00,71.7,48.0,29.69,South,183,3.0,16.0,43,0.00,,---,0.00,VWS V14.01,2013-11-15 18:40:00,
2013-11-15 11:45:00,72.5,47.5,29.69,SSE,159,11.0,16.0,41,0.00,,---,0.00,VWS V14.01,2013-11-15 18:45:00,
2013-11-15 11:50:00,72.9,48.5,29.68,SSE,165,6.0,16.0,42,0.00,,---,0.00,VWS V14.01,2013-11-15 18:50:00,
2013-11-15 11:56:00,72.8,47.8,29.68,SSE,162,11.0,22.0,41,0.00,,---,0.00,VWS V14.01,2013-11-15 18:56:00,
2013-11-15 12:00:00,72.4,47.4,29.67,South,177,5.0,22.0,41,0.00,,---,0.00,VWS V15.00,2013-11-15 19:00:00,
2013-11-15 12:01:00,72.4,47.4,29.67,SSW,198,9.0,22.0,41,0.00,,---,0.00,VWS V14.01,2013-11-15 19:01:00,
2013-11-15 12:06:00,72.2,47.9,29.67,South,186,8.0,15.0,42,0.00,,---,0.00,VWS V14.01,2013-11-15 19:06:00,
2013-11-15 12:11:00,72.0,47.7,29.67,South,169,7.0,15.0,42,0.00,,---,0.00,VWS V14.01,2013-11-15 19:11:00,
2013-11-15 12:16:00,71.8,47.5,29.67,ESE,117,10.0,16.0,42,0.00,,---,0.00,VWS V14.01,2013-11-15 19:16:00,
2013-11-15 12:21:00,71.7,47.4,29.66,SE,128,7.0,16.0,42,0.00,,---,0.00,VWS V14.01,2013-11-15 19:21:00,
2013-11-15 12:26:00,72.0,47.7,29.66,SE,140,6.0,16.0,42,0.00,,---,0.00,VWS V14.01,2013-11-15 19:26:00,
2013-11-15 12:31:00,72.2,47.9,29.65,South,179,6.0,9.0,42,0.00,,---,0.00,VWS V14.01,2013-11-15 19:31:00,
2013-11-15 12:36:00,72.2,47.9,29.65,SSE,149,4.0,14.0,42,0.00,,---,0.00,VWS V14.01,2013-11-15 19:36:00,
2013-11-15 12:41:00,71.9,47.6,29.65,SSE,160,8.0,14.0,42,0.00,,---,0.00,VWS V14.01,2013-11-15 19:41:00,
2013-11-15 12:46:00,71.8,48.1,29.65,SSE,150,12.0,16.0,43,0.00,,---,0.00,VWS V14.01,2013-11-15 19:46:00,
2013-11-15 12:51:00,71.7,47.4,29.65,South,184,7.0,16.0,42,0.00,,---,0.00,VWS V14.01,2013-11-15 19:51:00,
2013-11-15 12:56:00,71.5,47.8,29.64,SSW,203,5.0,16.0,43,0.00,,---,0.00,VWS V14.01,2013-11-15 19:56:00,
2013-11-15 13:00:00,71.4,47.8,29.64,South,176,6.0,16.0,43,0.00,,---,0.00,VWS V15.00,2013-11-15 20:00:00,
2013-11-15 13:01:00,71.4,47.8,29.64,South,172,6.0,9.0,43,0.00,,---,0.00,VWS V14.01,2013-11-15 20:01:00,
2013-11-15 13:06:00,71.4,47.8,29.63,SW,231,6.0,11.0,43,0.00,,---,0.00,VWS V14.01,2013-11-15 20:06:00,
2013-11-15 13:11:00,71.4,47.8,29.63,SSE,159,4.0,14.0,43,0.00,,---,0.00,VWS V14.01,2013-11-15 20:11:00,
2013-11-15 13:17:00,71.6,48.6,29.63,South,176,5.0,14.0,44,0.00,,---,0.00,VWS V14.01,2013-11-15 20:17:00,
2013-11-15 13:22:00,71.7,48.0,29.62,SE,127,7.0,15.0,43,0.00,,---,0.00,VWS V14.01,2013-11-15 20:22:00,
2013-11-15 13:27:00,71.9,48.8,29.62,South,181,9.0,15.0,44,0.00,,---,0.00,VWS V14.01,2013-11-15 20:27:00,
2013-11-15 13:30:00,72.1,49.0,29.61,ESE,111,7.0,15.0,44,0.00,,---,0.00,VWS V15.00,2013-11-15 20:30:00,
2013-11-15 13:32:00,72.1,49.0,29.61,SSE,167,10.0,13.0,44,0.00,,---,0.00,VWS V14.01,2013-11-15 20:32:00,
2013-11-15 13:37:00,72.2,48.5,29.61,South,169,8.0,14.0,43,0.00,,---,0.00,VWS V14.01,2013-11-15 20:37:00,
2013-11-15 13:42:00,72.5,48.1,29.61,SSE,156,10.0,14.0,42,0.00,,---,0.00,VWS V14.01,2013-11-15 20:42:00,
2013-11-15 13:47:00,72.7,47.7,29.60,South,181,7.0,15.0,41,0.00,,---,0.00,VWS V14.01,2013-11-15 20:47:00,
2013-11-15 13:52:00,72.8,48.4,29.60,South,170,7.0,18.0,42,0.00,,---,0.00,VWS V14.01,2013-11-15 20:52:00,
2013-11-15 13:57:00,72.4,48.0,29.60,SW,218,8.0,18.0,42,0.00,,---,0.00,VWS V14.01,2013-11-15 20:57:00,
2013-11-15 14:00:00,72.3,47.3,29.60,SSW,193,12.0,18.0,41,0.00,,---,0.00,VWS V15.00,2013-11-15 21:00:00,
2013-11-15 14:02:00,72.3,47.3,29.60,SE,139,11.0,13.0,41,0.00,,---,0.00,VWS V14.01,2013-11-15 21:02:00,
2013-11-15 14:07:00,72.3,47.3,29.60,SSW,195,8.0,14.0,41,0.00,,---,0.00,VWS V14.01,2013-11-15 21:07:00,
2013-11-15 14:12:00,72.2,47.2,29.60,SSE,159,8.0,19.0,41,0.00,,---,0.00,VWS V14.01,2013-11-15 21:12:00,
2013-11-15 14:17:00,72.3,47.3,29.59,SSW,193,6.0,19.0,41,0.00,,---,0.00,VWS V14.01,2013-11-15 21:17:00,
2013-11-15 14:22:00,72.5,47.5,29.58,SE,136,5.0,19.0,41,0.00,,---,0.00,VWS V14.01,2013-11-15 21:22:00,
2013-11-15 14:27:00,72.5,46.8,29.58,South,175,7.0,19.0,40,0.00,,---,0.00,VWS V14.01,2013-11-15 21:27:00,
2013-11-15 14:30:00,72.4,46.7,29.58,SW,217,7.0,19.0,40,0.00,,---,0.00,VWS V15.00,2013-11-15 21:30:00,
2013-11-15 14:33:00,72.4,46.7,29.58,South,184,6.0,12.0,40,0.00,,---,0.00,VWS V14.01,2013-11-15 21:33:00,
2013-11-15 14:38:00,72.5,46.8,29.58,SSE,162,4.0,12.0,40,0.00,,---,0.00,VWS V14.01,2013-11-15 21:38:00,
2013-11-15 14:43:00,72.4,46.7,29.58,SSW,198,3.0,14.0,40,0.00,,---,0.00,VWS V14.01,2013-11-15 21:43:00,
2013-11-15 14:48:00,72.2,47.2,29.58,SSE,167,10.0,14.0,41,0.00,,---,0.00,VWS V14.01,2013-11-15 21:48:00,
2013-11-15 14:53:00,72.2,47.2,29.57,SSE,153,5.0,16.0,41,0.00,,---,0.00,VWS V14.01,2013-11-15 21:53:00,
2013-11-15 14:58:00,72.2,47.2,29.57,SW,233,6.0,16.0,41,0.00,,---,0.00,VWS V14.01,2013-11-15 21:58:00,
2013-11-15 15:00:00,72.3,47.3,29.57,South,176,5.0,16.0,41,0.00,,---,0.00,VWS V15.00,2013-11-15 22:00:00,
2013-11-15 15:03:00,72.5,46.8,29.57,SW,220,9.0,13.0,40,0.00,,---,0.00,VWS V14.01,2013-11-15 22:03:00,
2013-11-15 15:08:00,72.6,46.9,29.57,SSW,205,5.0,13.0,40,0.00,,---,0.00,VWS V14.01,2013-11-15 22:08:00,
2013-11-15 15:13:00,73.2,46.8,29.57,SSE,149,3.0,13.0,39,0.00,,---,0.00,VWS V14.01,2013-11-15 22:13:00,
2013-11-15 15:18:00,74.0,46.1,29.56,SSW,210,16.0,20.0,37,0.00,,---,0.00,VWS V14.01,2013-11-15 22:18:00,
2013-11-15 15:23:00,74.3,45.7,29.56,West,259,9.0,20.0,36,0.00,,---,0.00,VWS V14.01,2013-11-15 22:23:00,
2013-11-15 15:28:00,74.0,45.4,29.56,West,266,11.0,20.0,36,0.00,,---,0.00,VWS V14.01,2013-11-15 22:28:00,
2013-11-15 15:30:00,73.9,45.3,29.56,WSW,252,11.0,21.0,36,0.00,,---,0.00,VWS V15.00,2013-11-15 22:30:00,
2013-11-15 15:33:00,73.9,44.5,29.56,SSW,200,15.0,20.0,35,0.00,,---,0.00,VWS V14.01,2013-11-15 22:33:00,
2013-11-15 15:38:00,73.8,45.2,29.55,SSW,205,9.0,20.0,36,0.00,,---,0.00,VWS V14.01,2013-11-15 22:38:00,
2013-11-15 15:44:00,73.8,45.2,29.55,SSW,201,6.0,20.0,36,0.00,,---,0.00,VWS V14.01,2013-11-15 22:44:00,
2013-11-15 15:49:00,74.0,45.4,29.55,WSW,243,6.0,20.0,36,0.00,,---,0.00,VWS V14.01,2013-11-15 22:49:00,
2013-11-15 15:54:00,73.8,45.9,29.55,SW,215,5.0,20.0,37,0.00,,---,0.00,VWS V14.01,2013-11-15 22:54:00,
2013-11-15 15:59:00,74.3,46.4,29.55,SSW,201,10.0,20.0,37,0.00,,---,0.00,VWS V14.01,2013-11-15 22:59:00,
2013-11-15 16:00:00,74.5,46.5,29.55,SW,233,12.0,20.0,37,0.00,,---,0.00,VWS V15.00,2013-11-15 23:00:00,
2013-11-15 16:04:00,74.8,46.8,29.55,SW,217,7.0,16.0,37,0.00,,---,0.00,VWS V14.01,2013-11-15 23:04:00,
2013-11-15 16:09:00,74.4,45.7,29.55,WSW,250,11.0,20.0,36,0.00,,---,0.00,VWS V14.01,2013-11-15 23:09:00,
2013-11-15 16:14:00,73.7,45.1,29.55,SW,215,22.0,22.0,36,0.00,,---,0.00,VWS V14.01,2013-11-15 23:14:00,
2013-11-15 16:19:00,73.2,44.7,29.55,SSW,205,11.0,22.0,36,0.00,,---,0.00,VWS V14.01,2013-11-15 23:19:00,
2013-11-15 16:24:00,73.3,44.0,29.55,SW,225,8.0,22.0,35,0.00,,---,0.00,VWS V14.01,2013-11-15 23:24:00,
2013-11-15 16:29:00,73.6,42.8,29.55,SW,214,10.0,22.0,33,0.00,,---,0.00,VWS V14.01,2013-11-15 23:29:00,
2013-11-15 16:30:00,73.4,42.6,29.55,West,266,19.0,22.0,33,0.00,,---,0.00,VWS V15.00,2013-11-15 23:30:00,
2013-11-15 16:34:00,73.1,43.1,29.55,South,186,9.0,19.0,34,0.00,,---,0.00,VWS V14.01,2013-11-15 23:34:00,
2013-11-15 16:39:00,73.3,42.5,29.55,SSW,203,8.0,20.0,33,0.00,,---,0.00,VWS V14.01,2013-11-15 23:39:00,
2013-11-15 16:44:00,73.2,42.4,29.55,SSW,205,9.0,20.0,33,0.00,,---,0.00,VWS V14.01,2013-11-15 23:44:00,
2013-11-15 16:50:00,73.2,41.6,29.55,SSW,212,5.0,20.0,32,0.00,,---,0.00,VWS V14.01,2013-11-15 23:50:00,
2013-11-15 16:55:00,72.8,41.3,29.55,SW,222,7.0,21.0,32,0.00,,---,0.00,VWS V14.01,2013-11-15 23:55:00,
2013-11-15 17:00:00,72.6,41.9,29.55,South,176,7.0,21.0,33,0.00,,---,0.00,VWS V14.01,2013-11-16 00:00:00,
2013-11-15 17:05:00,72.4,41.7,29.55,SW,226,10.0,17.0,33,0.00,,---,0.00,VWS V14.01,2013-11-16 00:05:00,
2013-11-15 17:10:00,72.0,41.3,29.55,West,269,12.0,22.0,33,0.00,,---,0.00,VWS V14.01,2013-11-16 00:10:00,
2013-11-15 17:15:00,71.7,41.9,29.55,SSE,148,8.0,22.0,34,0.00,,---,0.00,VWS V14.01,2013-11-16 00:15:00,
2013-11-15 17:20:00,71.3,43.7,29.55,SSE,166,13.0,22.0,37,0.00,,---,0.00,VWS V14.01,2013-11-16 00:20:00,
2013-11-15 17:25:00,70.9,44.7,29.55,SW,235,11.0,22.0,39,0.00,,---,0.00,VWS V14.01,2013-11-16 00:25:00,
2013-11-15 17:30:00,70.5,45.0,29.56,SSW,198,13.0,22.0,40,0.00,,---,0.00,VWS V14.01,2013-11-16 00:30:00,
2013-11-15 17:35:00,70.3,44.2,29.56,WSW,240,11.0,20.0,39,0.00,,---,0.00,VWS V14.01,2013-11-16 00:35:00,
2013-11-15 17:40:00,70.2,45.4,29.56,SW,229,11.0,20.0,41,0.00,,---,0.00,VWS V14.01,2013-11-16 00:40:00,
2013-11-15 17:45:00,70.1,45.3,29.56,South,181,8.0,20.0,41,0.00,,---,0.00,VWS V14.01,2013-11-16 00:45:00,
2013-11-15 17:50:00,69.9,45.2,29.55,WSW,248,8.0,20.0,41,0.00,,---,0.00,VWS V14.01,2013-11-16 00:50:00,
2013-11-15 17:55:00,69.9,44.5,29.55,WSW,250,5.0,20.0,40,0.00,,---,0.00,VWS V14.01,2013-11-16 00:55:00,
2013-11-15 18:00:00,69.8,45.7,29.56,WSW,246,13.0,20.0,42,0.00,,---,0.00,VWS V15.00,2013-11-16 01:00:00,
2013-11-15 18:01:00,69.8,45.1,29.56,SW,235,12.0,20.0,41,0.00,,---,0.00,VWS V14.01,2013-11-16 01:01:00,
2013-11-15 18:06:00,69.5,46.0,29.56,SSW,211,11.0,14.0,43,0.00,,---,0.00,VWS V14.01,2013-11-16 01:06:00,
2013-11-15 18:11:00,69.2,46.4,29.56,WSW,240,8.0,14.0,44,0.00,,---,0.00,VWS V14.01,2013-11-16 01:11:00,
2013-11-15 18:16:00,69.0,46.8,29.56,SW,218,8.0,14.0,45,0.00,,---,0.00,VWS V14.01,2013-11-16 01:16:00,
2013-11-15 18:21:00,68.7,47.1,29.56,SW,218,15.0,16.0,46,0.00,,---,0.00,VWS V14.01,2013-11-16 01:21:00,
2013-11-15 18:26:00,68.6,47.6,29.56,SW,218,13.0,17.0,47,0.00,,---,0.00,VWS V14.01,2013-11-16 01:26:00,
2013-11-15 18:30:00,68.6,47.6,29.57,SW,215,12.0,21.0,47,0.00,,---,0.00,VWS V15.00,2013-11-16 01:30:00,
2013-11-15 18:31:00,68.6,47.6,29.57,SSW,208,10.0,12.0,47,0.00,,---,0.00,VWS V14.01,2013-11-16 01:31:00,
2013-11-15 18:36:00,68.5,48.1,29.57,SW,235,10.0,15.0,48,0.00,,---,0.00,VWS V14.01,2013-11-16 01:36:00,
2013-11-15 18:41:00,68.5,48.6,29.57,SSW,207,10.0,16.0,49,0.00,,---,0.00,VWS V14.01,2013-11-16 01:41:00,
2013-11-15 18:46:00,68.3,49.0,29.57,WSW,240,16.0,21.0,50,0.00,,---,0.00,VWS V14.01,2013-11-16 01:46:00,
2013-11-15 18:51:00,68.3,49.5,29.57,West,266,11.0,21.0,51,0.00,,---,0.00,VWS V14.01,2013-11-16 01:51:00,
2013-11-15 18:56:00,68.2,49.9,29.57,SSE,153,8.0,21.0,52,0.00,,---,0.00,VWS V14.01,2013-11-16 01:56:00,
2013-11-15 19:01:00,68.1,49.8,29.57,SW,219,10.0,14.0,52,0.00,,---,0.00,VWS V14.01,2013-11-16 02:01:00,
2013-11-15 19:06:00,67.9,50.2,29.57,SW,226,12.0,17.0,53,0.00,,---,0.00,VWS V14.01,2013-11-16 02:06:00,
2013-11-15 19:12:00,67.9,50.2,29.57,SSW,201,7.0,17.0,53,0.00,,---,0.00,VWS V14.01,2013-11-16 02:12:00,
2013-11-15 19:17:00,67.7,50.5,29.58,SSW,208,10.0,17.0,54,0.00,,---,0.00,VWS V14.01,2013-11-16 02:17:00,
2013-11-15 19:22:00,67.5,50.8,29.58,South,177,8.0,17.0,55,0.00,,---,0.00,VWS V14.01,2013-11-16 02:22:00,
2013-11-15 19:27:00,67.3,50.6,29.58,SSW,195,9.0,17.0,55,0.00,,---,0.00,VWS V14.01,2013-11-16 02:27:00,
2013-11-15 19:30:00,67.3,51.6,29.58,South,176,9.0,17.0,57,0.00,,---,0.00,VWS V15.00,2013-11-16 02:30:00,
2013-11-15 19:32:00,67.4,51.7,29.58,South,175,6.0,14.0,57,0.00,,---,0.00,VWS V14.01,2013-11-16 02:32:00,
2013-11-15 19:37:00,67.3,51.6,29.58,SW,226,9.0,14.0,57,0.00,,---,0.00,VWS V14.01,2013-11-16 02:37:00,
2013-11-15 19:42:00,67.1,51.8,29.58,WSW,237,11.0,14.0,58,0.00,,---,0.00,VWS V14.01,2013-11-16 02:42:00,
2013-11-15 19:47:00,67.1,51.8,29.58,SW,214,5.0,14.0,58,0.00,,---,0.00,VWS V14.01,2013-11-16 02:47:00,
2013-11-15 19:52:00,66.8,52.0,29.58,SW,220,4.0,14.0,59,0.00,,---,0.00,VWS V14.01,2013-11-16 02:52:00,
2013-11-15 19:57:00,66.7,51.9,29.58,SSW,200,9.0,14.0,59,0.00,,---,0.00,VWS V14.01,2013-11-16 02:57:00,
2013-11-15 20:02:00,66.5,51.8,29.58,WSW,250,11.0,14.0,59,0.00,,---,0.00,VWS V14.01,2013-11-16 03:02:00,
2013-11-15 20:08:00,66.3,52.0,29.58,SSE,165,6.0,14.0,60,0.00,,---,0.00,VWS V14.01,2013-11-16 03:08:00,
2013-11-15 20:13:00,66.1,51.8,29.58,South,169,9.0,14.0,60,0.00,,---,0.00,VWS V14.01,2013-11-16 03:13:00,
2013-11-15 20:18:00,66.0,51.7,29.58,WSW,253,9.0,15.0,60,0.00,,---,0.00,VWS V14.01,2013-11-16 03:18:00,
2013-11-15 20:23:00,65.9,51.6,29.59,SW,235,10.0,15.0,60,0.00,,---,0.00,VWS V14.01,2013-11-16 03:23:00,
2013-11-15 20:28:00,65.8,52.0,29.59,West,260,8.0,17.0,61,0.00,,---,0.00,VWS V14.01,2013-11-16 03:28:00,
2013-11-15 20:30:00,65.7,51.9,29.59,SW,224,10.0,17.0,61,0.00,,---,0.00,VWS V15.00,2013-11-16 03:30:00,
2013-11-15 20:33:00,65.7,52.3,29.59,SSW,193,13.0,15.0,62,0.00,,---,0.00,VWS V14.01,2013-11-16 03:33:00,
2013-11-15 20:38:00,65.5,52.6,29.60,SW,226,18.0,20.0,63,0.00,,---,0.00,VWS V14.01,2013-11-16 03:38:00,
2013-11-15 20:43:00,65.5,53.0,29.59,SSW,200,11.0,20.0,64,0.00,,---,0.00,VWS V14.01,2013-11-16 03:43:00,
2013-11-15 20:48:00,65.3,52.8,29.60,SSW,203,8.0,20.0,64,0.00,,---,0.00,VWS V14.01,2013-11-16 03:48:00,
2013-11-15 20:53:00,65.2,53.2,29.60,SSW,195,10.0,20.0,65,0.00,,---,0.00,VWS V14.01,2013-11-16 03:53:00,
2013-11-15 20:58:00,65.2,53.2,29.60,SW,215,6.0,20.0,65,0.00,,---,0.00,VWS V14.01,2013-11-16 03:58:00,
2013-11-15 21:00:00,65.2,53.2,29.60,WSW,244,12.0,20.0,65,0.00,,---,0.00,VWS V15.00,2013-11-16 04:00:00,
2013-11-15 21:03:00,65.2,52.7,29.60,SSW,210,8.0,21.0,64,0.00,,---,0.00,VWS V14.01,2013-11-16 04:03:00,
2013-11-15 21:09:00,65.1,53.1,29.60,WSW,245,16.0,21.0,65,0.00,,---,0.00,VWS V14.01,2013-11-16 04:09:00,
2013-11-15 21:14:00,65.1,53.1,29.60,SW,232,9.0,21.0,65,0.00,,---,0.00,VWS V14.01,2013-11-16 04:14:00,
2013-11-15 21:19:00,65.0,53.0,29.60,WSW,243,12.0,21.0,65,0.00,,---,0.00,VWS V14.01,2013-11-16 04:19:00,
2013-11-15 21:24:00,65.0,53.4,29.60,SW,232,12.0,21.0,66,0.00,,---,0.00,VWS V14.01,2013-11-16 04:24:00,
2013-11-15 21:29:00,65.0,53.4,29.60,SW,219,11.0,22.0,66,0.00,,---,0.00,VWS V14.01,2013-11-16 04:29:00,
2013-11-15 21:30:00,65.0,53.0,29.60,SW,227,15.0,22.0,65,0.00,,---,0.00,VWS V15.00,2013-11-16 04:30:00,
2013-11-15 21:34:00,65.0,53.0,29.60,SSW,201,12.0,15.0,65,0.00,,---,0.00,VWS V14.01,2013-11-16 04:34:00,
2013-11-15 21:39:00,64.9,52.9,29.60,SSW,213,12.0,20.0,65,0.00,,---,0.00,VWS V14.01,2013-11-16 04:39:00,
2013-11-15 21:44:00,64.9,52.9,29.61,North,353,9.0,20.0,65,0.00,,---,0.00,VWS V14.01,2013-11-16 04:44:00,
2013-11-15 21:49:00,64.8,52.8,29.61,SW,226,9.0,20.0,65,0.00,,---,0.00,VWS V14.01,2013-11-16 04:49:00,
2013-11-15 21:54:00,64.7,52.7,29.61,WSW,245,5.0,20.0,65,0.00,,---,0.00,VWS V14.01,2013-11-16 04:54:00,
2013-11-15 21:59:00,64.5,52.9,29.61,SW,228,9.0,20.0,66,0.00,,---,0.00,VWS V14.01,2013-11-16 04:59:00,
2013-11-15 22:00:00,64.5,52.9,29.61,West,260,6.0,20.0,66,0.00,,---,0.00,VWS V15.00,2013-11-16 05:00:00,
2013-11-15 22:01:00,64.5,52.9,29.61,SW,229,7.0,20.0,66,0.00,,---,0.00,VWS V14.01,2013-11-16 05:01:00,
2013-11-15 22:02:00,64.5,52.9,29.61,SSW,208,7.0,9.0,66,0.00,,---,0.00,VWS V14.01,2013-11-16 05:02:00,
2013-11-15 22:03:00,64.4,52.8,29.61,SW,224,5.0,15.0,66,0.00,,---,0.00,VWS V14.01,2013-11-16 05:03:00,
2013-11-15 22:08:00,64.5,52.9,29.61,SW,217,8.0,20.0,66,0.00,,---,0.00,VWS V14.01,2013-11-16 05:08:00,
2013-11-15 22:13:00,64.4,52.8,29.62,WSW,256,8.0,20.0,66,0.00,,---,0.00,VWS V14.01,2013-11-16 05:13:00,
2013-11-15 22:18:00,64.2,53.0,29.62,WSW,243,8.0,20.0,67,0.00,,---,0.00,VWS V14.01,2013-11-16 05:18:00,
2013-11-15 22:23:00,64.1,52.5,29.62,SSW,208,8.0,20.0,66,0.00,,---,0.00,VWS V14.01,2013-11-16 05:23:00,
2013-11-15 22:28:00,64.0,52.4,29.62,WSW,245,7.0,20.0,66,0.00,,---,0.00,VWS V14.01,2013-11-16 05:28:00,
2013-11-15 22:33:00,63.8,52.7,29.62,SW,233,13.0,13.0,67,0.00,,---,0.00,VWS V14.01,2013-11-16 05:33:00,
2013-11-15 22:38:00,63.7,52.5,29.62,NW,304,4.0,16.0,67,0.00,,---,0.00,VWS V14.01,2013-11-16 05:38:00,
2013-11-15 22:43:00,63.6,52.5,29.62,WSW,246,6.0,17.0,67,0.00,,---,0.00,VWS V14.01,2013-11-16 05:43:00,
2013-11-15 22:48:00,63.7,52.1,29.62,SW,231,6.0,17.0,66,0.00,,---,0.00,VWS V14.01,2013-11-16 05:48:00,
2013-11-15 22:53:00,63.7,51.7,29.62,SSW,208,5.0,17.0,65,0.00,,---,0.00,VWS V14.01,2013-11-16 05:53:00,
2013-11-15 22:59:00,63.8,51.4,29.62,SW,236,12.0,17.0,64,0.00,,---,0.00,VWS V14.01,2013-11-16 05:59:00,
2013-11-15 23:00:00,63.8,51.4,29.63,SW,223,7.0,17.0,64,0.00,,---,0.00,VWS V15.00,2013-11-16 06:00:00,
2013-11-15 23:04:00,63.9,51.1,29.63,SSW,208,6.0,14.0,63,0.00,,---,0.00,VWS V14.01,2013-11-16 06:04:00,
2013-11-15 23:09:00,63.9,51.1,29.63,SW,225,3.0,15.0,63,0.00,,---,0.00,VWS V14.01,2013-11-16 06:09:00,
2013-11-15 23:14:00,63.8,50.5,29.63,SSW,210,8.0,16.0,62,0.00,,---,0.00,VWS V14.01,2013-11-16 06:14:00,
2013-11-15 23:19:00,63.6,50.4,29.63,WSW,242,7.0,16.0,62,0.00,,---,0.00,VWS V14.01,2013-11-16 06:19:00,
2013-11-15 23:24:00,63.5,50.3,29.63,SW,224,4.0,16.0,62,0.00,,---,0.00,VWS V14.01,2013-11-16 06:24:00,
2013-11-15 23:29:00,63.3,50.1,29.63,SW,226,4.0,16.0,62,0.00,,---,0.00,VWS V14.01,2013-11-16 06:29:00,
2013-11-15 23:30:00,63.3,50.1,29.63,WSW,241,3.0,16.0,62,0.00,,---,0.00,VWS V15.00,2013-11-16 06:30:00,
2013-11-15 23:34:00,63.3,50.1,29.64,SW,222,5.0,12.0,62,0.00,,---,0.00,VWS V14.01,2013-11-16 06:34:00,
2013-11-15 23:39:00,62.9,50.1,29.64,SW,236,4.0,12.0,63,0.00,,---,0.00,VWS V14.01,2013-11-16 06:39:00,
2013-11-15 23:44:00,63.0,50.7,29.63,SW,215,6.0,12.0,64,0.00,,---,0.00,VWS V14.01,2013-11-16 06:44:00,
2013-11-15 23:50:00,62.9,50.5,29.64,SW,230,6.0,12.0,64,0.00,,---,0.00,VWS V14.01,2013-11-16 06:50:00,
2013-11-15 23:55:00,62.7,50.8,29.64,WSW,247,3.0,12.0,65,0.00,,---,0.00,VWS V14.01,2013-11-16 06:55:00,